"2009-12-02 00:00:00",1466206,8.25,46.2,3.213,0.75,4.134,99.36919,-2.307,-0.971,63.64,0,109.4,13.63,-1.56,8.2
"2009-12-02 00:00:30",1466207,8.29,46.66,3.075,0.606,3.972,99.36324,-2.323,-0.984,63.71,0,109.4,13.63,-1.58,8.7
"2009-12-02 00:01:00",1466208,8.18,46.94,2.816,0.817,3.847,99.35559,-2.342,-0.988,63.83,0,109.4,13.63,-1.60,8.9
"2009-12-02 00:01:30",1466209,8.14,47.1,2.857,0.811,3.827,99.35417,-2.346,-1.01,63.92,0,109.4,13.63,-1.60,9.1
"2009-12-02 00:02:00",1466210,8.29,47.47,1.887,0.823,3.868,99.35417,-2.346,-1.011,64,0,109.4,13.63,-1.60,9.5
"2009-12-02 00:02:30",1466211,8.77,47.8,3.007,0.736,3.814,99.35361,-2.347,-1.018,64.01,0,109.5,13.63,-1.60,9.8
"2009-12-02 00:03:00",1466212,8.62,47.83,2.635,0.797,3.882,99.34285,-2.374,-1.021,63.97,0,109.4,13.63,-1.63,9.8
"2009-12-02 00:03:30",1466213,8.71,47.53,3.295,0.731,4.001,99.33605,-2.392,-1.044,64.04,0,109.4,13.63,-1.65,9.5
"2009-12-02 00:04:00",1466214,8.96,50.26,2.755,0.733,4.068,99.32472,-2.421,-1.032,64,0,109.4,13.63,-1.68,12.3
"2009-12-02 00:04:30",1466215,8.87,50.45,2.837,0.736,3.999,99.32019,-2.432,-1.068,63.97,0,109.4,13.63,-1.69,12.5
"2009-12-02 00:05:00",1466216,8.88,52.24,2.922,0.799,4.071,99.32019,-2.432,-1.055,64.02,0,109.4,13.63,-1.69,14.2
"2009-12-02 00:05:30",1466217,8.9,52.86,3.253,0.743,4.177,99.32019,-2.432,-1.093,64.1,0,109.4,13.63,-1.69,14.9
"2009-12-02 00:06:00",1466218,9.01,55.4,1.62,0.806,4.24,99.32019,-2.432,-1.09,64.53,0,109.4,13.63,-1.69,17.4
"2009-12-02 00:06:30",1466219,9.2,54.38,3.251,0.617,4.158,99.32019,-2.432,-1.111,65.07,0,109.4,13.63,-1.69,16.4
"2009-12-02 00:07:00",1466220,9.23,54.75,3.211,0.723,4.363,99.32019,-2.432,-1.078,65.44,0,109.4,13.63,-1.69,16.8
"2009-12-02 00:07:30",1466221,9.18,56.38,3.293,0.736,4.375,99.32019,-2.432,-1.1,65.17,0,109.4,13.63,-1.69,18.4
"2009-12-02 00:08:00",1466222,9.15,58.59,3.387,0.699,4.482,99.32019,-2.432,-1.116,64.89,0,109.4,13.63,-1.69,20.6
"2009-12-02 00:08:30",1466223,9.27,59.76,3.105,0.616,4.365,99.32047,-2.431,-1.109,64.82,0,109.4,13.63,-1.69,21.8
"2009-12-02 00:09:00",1466224,9.15,60.44,3.382,0.805,4.37,99.32019,-2.432,-1.116,64.75,0,109.4,13.63,-1.69,22.4
"2009-12-02 00:09:30",1466225,9.13,60.29,2.17,0.803,4.17,99.32019,-2.432,-1.131,64.64,0,109.4,13.63,-1.69,22.3
"2009-12-02 00:10:00",1466226,9.16,60.05,2.588,0.724,4.327,99.32103,-2.43,-1.139,64.64,0,109.4,13.63,-1.69,22.0
"2009-12-02 00:10:30",1466227,9.32,60.8,3.253,0.512,4.207,99.32076,-2.431,-1.135,64.66,0,109.4,13.63,-1.69,22.8
"2009-12-02 00:11:00",1466228,9.06,61.8,2.58,0.795,4.175,99.3199,-2.433,-1.135,64.58,0,109.4,13.63,-1.69,23.8
"2009-12-02 00:11:30",1466229,9.01,62.74,3.134,0.724,4.428,99.32018,-2.432,-1.135,64.43,0,109.4,13.63,-1.69,24.7
"2009-12-02 00:12:00",1466230,9.03,64.12,2.453,0.733,4.621,99.32018,-2.432,-1.135,64.28,0,109.4,13.64,-1.69,26.1
"2009-12-02 00:12:30",1466231,9.04,61.9,3.174,0.621,4.458,99.32017,-2.432,-1.143,64.21,0,109.5,13.64,-1.69,23.9
"2009-12-02 00:13:00",1466232,8.92,61.83,3.237,0.718,4.177,99.31733,-2.439,-1.141,64.2,0,109.4,13.64,-1.70,23.8
"2009-12-02 00:13:30",1466233,8.91,62.23,2.136,0.749,4.002,99.31986,-2.433,-1.161,64.23,0,109.4,13.64,-1.69,24.2
"2009-12-02 00:14:00",1466234,9.18,63.18,2.979,0.752,4.107,99.31758,-2.439,-1.153,64.3,0,109.4,13.64,-1.70,25.2
"2009-12-02 00:14:30",1466235,9.28,62.46,2.719,0.654,4.104,99.31503,-2.445,-1.151,64.32,0,109.4,13.64,-1.70,24.5
"2009-12-02 00:15:00",1466236,9.3,61.88,2.889,0.736,4.055,99.31445,-2.447,-1.144,64.35,0,109.4,13.64,-1.70,23.9
"2009-12-02 00:15:30",1466237,9.48,63.05,3.613,0.723,4.187,99.31332,-2.45,-1.151,64.31,0,109.4,13.64,-1.71,25.0
"2009-12-02 00:16:00",1466238,9.7,69.15,3.224,0.747,4.44,99.31302,-2.45,-1.16,64.28,0,109.4,13.64,-1.71,31.2
"2009-12-02 00:16:30",1466239,9.77,69.4,3.194,0.709,4.142,99.31441,-2.447,-1.16,64.33,0,109.4,13.64,-1.70,31.4
"2009-12-02 00:17:00",1466240,9.6,68.86,2.224,0.732,4.173,99.30734,-2.465,-1.145,64.39,0,109.4,13.64,-1.72,30.9
"2009-12-02 00:17:30",1466241,9.49,67.41,2.242,0.756,4.229,99.30901,-2.461,-1.153,64.55,0,109.4,13.64,-1.72,29.4
"2009-12-02 00:18:00",1466242,9.76,66.32,2.963,0.62,4.325,99.30929,-2.46,-1.161,64.85,0,109.4,13.64,-1.72,28.3
"2009-12-02 00:18:30",1466243,9.78,65,2.818,0.71,4.312,99.30645,-2.467,-1.154,65.03,0,109.5,13.64,-1.72,27.0
"2009-12-02 00:19:00",1466244,9.67,65.68,3.214,0.728,4.316,99.30617,-2.468,-1.154,65.11,0,109.4,13.64,-1.72,27.7
"2009-12-02 00:19:30",1466245,9.67,67.98,3.104,0.814,4.119,99.30617,-2.468,-1.174,64.82,0,109.4,13.64,-1.72,30.0
"2009-12-02 00:20:00",1466246,9.43,65.7,3.097,0.781,4.277,99.30589,-2.469,-1.17,64.53,0,109.4,13.64,-1.73,27.7
"2009-12-02 00:20:30",1466247,9.44,67.45,3.341,0.611,4.233,99.30785,-2.464,-1.179,64.43,0,109.5,13.64,-1.72,29.4
"2009-12-02 00:21:00",1466248,9.38,66.83,3.204,0.717,4.207,99.30589,-2.469,-1.163,64.31,0,109.4,13.64,-1.73,28.8
"2009-12-02 00:21:30",1466249,9.26,65.71,3.426,0.723,4.058,99.30505,-2.471,-1.191,64.26,0,109.4,13.64,-1.73,27.7
"2009-12-02 00:22:00",1466250,9.34,65.12,3.338,0.71,4.133,99.30701,-2.466,-1.176,64.28,0,109.4,13.64,-1.72,27.1
"2009-12-02 00:22:30",1466251,9.4,64.79,3.402,0.62,3.991,99.30701,-2.466,-1.18,64.32,0,109.4,13.64,-1.72,26.8
"2009-12-02 00:23:00",1466252,9.23,65.34,2.871,0.81,3.979,99.30476,-2.472,-1.172,64.36,0,109.4,13.64,-1.73,27.3
"2009-12-02 00:23:30",1466253,9.08,65.24,2.935,0.825,4.244,99.30105,-2.481,-1.188,64.4,0,109.4,13.64,-1.74,27.2
"2009-12-02 00:24:00",1466254,9.27,66.69,2.834,0.785,3.97,99.28944,-2.511,-1.187,64.43,0,109.4,13.64,-1.77,28.7
"2009-12-02 00:24:30",1466255,9.52,67.86,2.615,0.722,4.045,99.28123,-2.531,-1.203,64.53,0,109.4,13.64,-1.79,29.9
"2009-12-02 00:25:00",1466256,9.33,66.92,2.898,0.808,3.834,99.2795,-2.536,-1.209,64.65,0,109.4,13.64,-1.79,28.9
"2009-12-02 00:25:30",1466257,9.25,64.82,3.097,0.817,3.926,99.27583,-2.545,-1.209,64.74,0,109.4,13.64,-1.80,26.8
"2009-12-02 00:26:00",1466258,9.26,64.57,1.795,0.813,4.143,99.27554,-2.546,-1.242,64.79,0,109.4,13.64,-1.80,26.6
"2009-12-02 00:26:30",1466259,9.48,63.57,2.846,0.717,4.153,99.27977,-2.535,-1.222,64.83,0,109.5,13.64,-1.79,25.6
"2009-12-02 00:27:00",1466260,9.42,62.63,2.768,0.735,3.876,99.27751,-2.541,-1.233,64.98,0,109.4,13.65,-1.80,24.6
"2009-12-02 00:27:30",1466261,9.36,61.9,2.741,0.73,3.922,99.27184,-2.555,-1.248,65.04,0,109.4,13.65,-1.81,23.9
"2009-12-02 00:28:00",1466262,9.69,62.74,2.666,0.812,4.144,99.2636,-2.576,-1.254,65.06,0,109.4,13.65,-1.83,24.7
"2009-12-02 00:28:30",1466263,9.99,64.61,3.956,0.733,4.101,99.25539,-2.597,-1.27,64.84,0,109.4,13.65,-1.85,26.6
"2009-12-02 00:29:00",1466264,10.28,67.08,2.863,0.815,4.081,99.24689,-2.619,-1.271,64.6,0,109.4,13.65,-1.88,29.1
"2009-12-02 00:29:30",1466265,9.94,66.14,3.255,0.834,4.131,99.2466,-2.62,-1.284,64.46,0,109.4,13.65,-1.88,28.1
"2009-12-02 00:30:00",1466266,10.02,66.35,3.42,0.835,4.273,99.24773,-2.617,-1.307,64.44,0,109.4,13.65,-1.87,28.3
"2009-12-02 00:30:30",1466267,9.46,63.25,3.253,0.754,4.128,99.24773,-2.617,-1.312,64.5,0,109.4,13.65,-1.87,25.2
"2009-12-02 00:31:00",1466268,9.43,66.44,3.012,0.831,4.058,99.24547,-2.623,-1.314,64.56,0,109.4,13.65,-1.88,28.4
"2009-12-02 00:31:30",1466269,9.35,67.2,2.983,0.84,4.011,99.23271,-2.655,-1.334,64.55,0,109.4,13.65,-1.91,29.2
"2009-12-02 00:32:00",1466270,9.42,66.7,2.977,0.825,4.117,99.22281,-2.68,-1.347,64.59,0,109.4,13.65,-1.94,28.7
"2009-12-02 00:32:30",1466271,9.69,69.97,2.894,0.686,3.939,99.21685,-2.695,-1.364,64.57,0,109.4,13.65,-1.95,32.0
"2009-12-02 00:33:00",1466272,9.56,70.38,3.011,0.802,3.977,99.2143,-2.702,-1.359,64.57,0,109.4,13.65,-1.96,32.4
"2009-12-02 00:33:30",1466273,9.55,69.93,2.83,0.82,3.961,99.21317,-2.705,-1.376,64.51,0,109.4,13.65,-1.96,31.9
"2009-12-02 00:34:00",1466274,9.57,70.46,1.9,0.805,4.022,99.21233,-2.707,-1.378,64.49,0,109.4,13.65,-1.96,32.5
"2009-12-02 00:34:30",1466275,9.63,70.45,2.95,0.706,3.892,99.21317,-2.705,-1.392,64.5,0,109.5,13.65,-1.96,32.4
"2009-12-02 00:35:00",1466276,9.54,70.49,3.206,0.814,3.911,99.21486,-2.701,-1.386,64.51,0,109.4,13.65,-1.96,32.5
"2009-12-02 00:35:30",1466277,9.98,71.59,3.241,0.807,4.029,99.21486,-2.701,-1.385,64.49,0,109.4,13.66,-1.96,33.6
"2009-12-02 00:36:00",1466278,9.79,72.69,2.719,0.842,4.167,99.21486,-2.701,-1.404,64.41,0,109.4,13.66,-1.96,34.7
"2009-12-02 00:36:30",1466279,9.41,70.14,2.731,0.76,4.004,99.21457,-2.701,-1.419,64.39,0,109.4,13.66,-1.96,32.1
"2009-12-02 00:37:00",1466280,9.56,70.11,3.324,0.881,4,99.20975,-2.714,-1.403,64.42,0,109.4,13.66,-1.97,32.1
"2009-12-02 00:37:30",1466281,9.39,70.33,3.35,0.82,3.954,99.20409,-2.728,-1.417,64.4,0,109.4,13.66,-1.99,32.3
"2009-12-02 00:38:00",1466282,9.53,69.49,2.842,0.869,4.087,99.19616,-2.748,-1.415,64.43,0,109.4,13.65,-2.01,31.5
"2009-12-02 00:38:30",1466283,9.3,69.31,2.964,0.745,3.917,99.19359,-2.755,-1.432,64.44,0,109.4,13.65,-2.01,31.3
"2009-12-02 00:39:00",1466284,9.25,69.98,3.132,0.791,3.987,99.19075,-2.762,-1.409,64.5,0,109.4,13.65,-2.02,32.0
"2009-12-02 00:39:30",1466285,9.49,69.67,2.891,0.838,3.915,99.18678,-2.772,-1.423,64.49,0,109.4,13.65,-2.03,31.7
"2009-12-02 00:40:00",1466286,9.64,69.27,2.702,0.756,4.081,99.18537,-2.776,-1.436,64.51,0,109.4,13.65,-2.03,31.3
"2009-12-02 00:40:30",1466287,9.86,70.29,2.391,0.647,3.891,99.18395,-2.779,-1.44,64.53,0,109.5,13.65,-2.04,32.3
"2009-12-02 00:41:00",1466288,9.49,69.11,3.114,0.824,3.844,99.18395,-2.779,-1.436,64.58,0,109.4,13.65,-2.04,31.1
"2009-12-02 00:41:30",1466289,9.86,68.1,3.172,0.637,3.934,99.18395,-2.779,-1.449,64.59,0,109.4,13.65,-2.04,30.1
"2009-12-02 00:42:00",1466290,9.59,66.45,3.164,0.792,4.095,99.18395,-2.779,-1.458,64.62,0,109.4,13.65,-2.04,28.4
"2009-12-02 00:42:30",1466291,9.72,66.13,2.492,0.761,3.963,99.18367,-2.78,-1.444,64.62,0,109.4,13.65,-2.04,28.1
"2009-12-02 00:43:00",1466292,9.6,65.11,3.226,0.756,4.082,99.18395,-2.779,-1.441,64.65,0,109.4,13.65,-2.04,27.1
"2009-12-02 00:43:30",1466293,9.53,65.97,2.91,0.767,3.974,99.18395,-2.779,-1.464,64.68,0,109.4,13.66,-2.04,28.0
"2009-12-02 00:44:00",1466294,9.63,66.7,2.628,0.783,4.192,99.18395,-2.779,-1.453,64.71,0,109.4,13.66,-2.04,28.7
"2009-12-02 00:44:30",1466295,9.93,66.59,3.459,0.728,4.106,99.18395,-2.779,-1.467,64.75,0,109.4,13.66,-2.04,28.6
"2009-12-02 00:45:00",1466296,9.82,65.57,3.015,0.858,4.063,99.18395,-2.779,-1.461,64.79,0,109.4,13.66,-2.04,27.6
"2009-12-02 00:45:30",1466297,9.72,66.35,3.887,0.77,4.088,99.18395,-2.779,-1.484,64.84,0,109.4,13.66,-2.04,28.3
"2009-12-02 00:46:00",1466298,9.54,67.66,3.105,0.778,4.157,99.18395,-2.779,-1.486,64.86,0,109.4,13.66,-2.04,29.7
"2009-12-02 00:46:30",1466299,9.59,68.34,2.899,0.732,3.982,99.18395,-2.779,-1.481,64.89,0,109.4,13.66,-2.04,30.3
"2009-12-02 00:47:00",1466300,9.4,68.38,2.769,0.837,4.029,99.18395,-2.779,-1.464,64.91,0,109.4,13.66,-2.04,30.4
"2009-12-02 00:47:30",1466301,9.42,67.91,2.728,0.735,3.95,99.18395,-2.779,-1.504,64.92,0,109.4,13.66,-2.04,29.9
"2009-12-02 00:48:00",1466302,9.59,67.37,3.585,0.771,4.106,99.18395,-2.779,-1.473,64.97,0,109.4,13.66,-2.04,29.4
"2009-12-02 00:48:30",1466303,9.6,67.56,1.945,0.687,3.877,99.18395,-2.779,-1.492,65,0,109.4,13.66,-2.04,29.6
"2009-12-02 00:49:00",1466304,9.61,67.26,3.007,0.73,3.902,99.18282,-2.782,-1.475,65.02,0,109.4,13.66,-2.04,29.3
"2009-12-02 00:49:30",1466305,9.51,65.97,2.558,0.728,3.85,99.18111,-2.787,-1.495,65.06,0,109.4,13.66,-2.04,28.0
"2009-12-02 00:50:00",1466306,9.46,65.53,3.14,0.718,4.085,99.17318,-2.807,-1.507,65.07,0,109.4,13.66,-2.06,27.5
"2009-12-02 00:50:30",1466307,9.92,66.33,2.371,0.59,4.005,99.1678,-2.82,-1.502,65.08,0,109.4,13.66,-2.08,28.3
"2009-12-02 00:51:00",1466308,9.86,66.02,2.861,0.633,3.925,99.16042,-2.839,-1.5,65.12,0,109.4,13.66,-2.10,28.0
"2009-12-02 00:51:30",1466309,10.02,65.66,2.809,0.764,3.937,99.15816,-2.845,-1.509,65.13,0,109.4,13.66,-2.10,27.7
"2009-12-02 00:52:00",1466310,10.13,65.9,2.654,0.761,4.107,99.15617,-2.85,-1.505,65.18,0,109.4,13.66,-2.11,27.9
"2009-12-02 00:52:30",1466311,10.41,65.16,2.921,0.679,4.019,99.15249,-2.859,-1.511,65.21,0,109.4,13.66,-2.12,27.2
"2009-12-02 00:53:00",1466312,10.29,64.87,3.035,0.721,4.01,99.15136,-2.862,-1.503,65.27,0,109.4,13.66,-2.12,26.9
"2009-12-02 00:53:30",1466313,10.64,65.51,3.618,0.676,4.159,99.15023,-2.865,-1.525,65.31,0,109.4,13.66,-2.12,27.5
"2009-12-02 00:54:00",1466314,10.21,66.79,2.214,0.798,4.284,99.14994,-2.866,-1.519,65.35,0,109.4,13.66,-2.12,28.8
"2009-12-02 00:54:30",1466315,10.19,66.49,3.291,0.649,4.161,99.14994,-2.866,-1.53,65.35,0,109.4,13.66,-2.12,28.5
"2009-12-02 00:55:00",1466316,9.76,65.21,2.882,0.905,4.15,99.14994,-2.866,-1.511,65.39,0,109.4,13.66,-2.12,27.2
"2009-12-02 00:55:30",1466317,10.16,66.08,2.495,0.759,4.078,99.14994,-2.866,-1.533,65.39,0,109.4,13.66,-2.12,28.1
"2009-12-02 00:56:00",1466318,9.95,65.61,4.246,0.754,4.198,99.14994,-2.866,-1.527,65.42,0,109.4,13.66,-2.12,27.6
"2009-12-02 00:56:30",1466319,9.8,65.99,2.552,0.674,4.079,99.14994,-2.866,-1.558,65.48,0,109.5,13.66,-2.12,28.0
"2009-12-02 00:57:00",1466320,10.01,65.08,2.823,0.755,4.054,99.14994,-2.866,-1.54,65.5,0,109.4,13.66,-2.12,27.1
"2009-12-02 00:57:30",1466321,9.84,65.05,3.03,0.661,4.051,99.14994,-2.866,-1.56,65.51,0,109.4,13.66,-2.12,27.1
"2009-12-02 00:58:00",1466322,9.92,65.2,3.278,0.657,4.164,99.14994,-2.866,-1.556,65.54,0,109.4,13.66,-2.12,27.2
"2009-12-02 00:58:30",1466323,9.82,64.96,3.528,0.626,3.987,99.14994,-2.866,-1.558,65.58,0,109.4,13.66,-2.12,27.0
"2009-12-02 00:59:00",1466324,9.8,65.6,2.575,0.73,3.942,99.14994,-2.866,-1.55,65.61,0,109.4,13.66,-2.12,27.6
"2009-12-02 00:59:30",1466325,9.81,65.25,2.102,0.809,3.966,99.14853,-2.87,-1.565,65.63,0,109.4,13.66,-2.13,27.2
"2009-12-02 01:00:00",1466326,9.94,65.98,2.703,0.755,4.13,99.14173,-2.887,-1.565,65.65,0,109.4,13.67,-2.15,28.0
"2009-12-02 01:00:30",1466327,9.98,65.53,2.991,0.632,3.981,99.13351,-2.908,-1.579,65.73,0,109.4,13.67,-2.17,27.5
"2009-12-02 01:01:00",1466328,10.07,65.4,2.802,0.761,3.954,99.13068,-2.915,-1.576,65.81,0,109.4,13.67,-2.17,27.4
"2009-12-02 01:01:30",1466329,10.06,65.3,3.458,0.79,3.977,99.13011,-2.916,-1.598,65.87,0,109.4,13.67,-2.17,27.3
"2009-12-02 01:02:00",1466330,10.18,66.24,3.06,0.751,4.087,99.12643,-2.926,-1.602,65.99,0,109.4,13.67,-2.18,28.2
"2009-12-02 01:02:30",1466331,10.46,67.36,3.397,0.649,4.029,99.12019,-2.942,-1.585,66.06,0,109.4,13.67,-2.20,29.4
"2009-12-02 01:03:00",1466332,10.4,66.46,2.913,0.727,3.988,99.11764,-2.948,-1.597,66.21,0,109.4,13.67,-2.21,28.5
"2009-12-02 01:03:30",1466333,10.67,67.14,3.009,0.762,3.982,99.11622,-2.952,-1.607,66.27,0,109.4,13.67,-2.21,29.1
"2009-12-02 01:04:00",1466334,10.65,66.57,2.922,0.772,4.16,99.11622,-2.952,-1.619,66.35,0,109.4,13.67,-2.21,28.6
"2009-12-02 01:04:30",1466335,10.62,66.18,2.848,0.531,4.096,99.1165,-2.951,-1.609,66.44,0,109.4,13.67,-2.21,28.2
"2009-12-02 01:05:00",1466336,10.42,67.3,3.413,0.703,4.149,99.1165,-2.951,-1.614,66.52,0,109.4,13.67,-2.21,29.3
"2009-12-02 01:05:30",1466337,9.95,65.26,2.767,0.78,4.043,99.11622,-2.952,-1.625,66.55,0,109.4,13.67,-2.21,27.3
"2009-12-02 01:06:00",1466338,10.44,66.67,2.926,0.76,4.109,99.11707,-2.95,-1.637,66.62,0,109.4,13.67,-2.21,28.7
"2009-12-02 01:06:30",1466339,10.54,66.33,3.508,0.507,4.064,99.11594,-2.953,-1.632,66.67,0,109.4,13.67,-2.21,28.3
"2009-12-02 01:07:00",1466340,10.52,66.54,4.299,0.637,4.085,99.11111,-2.965,-1.629,66.73,0,109.4,13.67,-2.22,28.5
"2009-12-02 01:07:30",1466341,10.31,64.13,4.282,0.87,4.035,99.09922,-2.995,-1.649,66.77,0,109.4,13.67,-2.25,26.1
"2009-12-02 01:08:00",1466342,10.57,66.54,4.301,0.711,4.272,99.09241,-3.013,-1.641,66.84,0,109.4,13.67,-2.27,28.5
"2009-12-02 01:08:30",1466343,10.73,67.93,3.148,0.802,4.097,99.08533,-3.031,-1.661,66.89,0,109.4,13.67,-2.29,29.9
"2009-12-02 01:09:00",1466344,10.22,63.85,4.639,1.01,3.934,99.08531,-3.031,-1.669,66.92,0,109.4,13.67,-2.29,25.8
"2009-12-02 01:09:30",1466345,10.02,66.9,5.523,0.843,3.953,99.08559,-3.03,-1.687,67,0,109.4,13.67,-2.29,28.9
"2009-12-02 01:10:00",1466346,10.58,67.63,3.924,0.62,4.181,99.08812,-3.023,-1.703,66.99,0,109.4,13.67,-2.28,29.6
"2009-12-02 01:10:30",1466347,10.66,70.46,2.741,0.753,4.074,99.08784,-3.024,-1.696,66.98,0,109.4,13.67,-2.28,32.5
"2009-12-02 01:11:00",1466348,10.48,66.89,4.234,0.93,3.983,99.09093,-3.016,-1.677,67,0,109.4,13.67,-2.27,28.9
"2009-12-02 01:11:30",1466349,10.39,72.76,3.025,0.778,4.048,99.09091,-3.016,-1.718,67.08,0,109.4,13.67,-2.27,34.8
"2009-12-02 01:12:00",1466350,9.69,69.83,2.713,0.936,4.023,99.0759,-3.055,-1.717,67.14,0,109.4,13.67,-2.31,31.8
"2009-12-02 01:12:30",1466351,9.91,68.39,3.083,0.716,3.841,99.07164,-3.065,-1.733,67.23,0,109.4,13.67,-2.32,30.4
"2009-12-02 01:13:00",1466352,9.73,74.61,3.371,0.85,3.902,99.07388,-3.06,-1.723,67.26,0,109.4,13.67,-2.32,36.6
"2009-12-02 01:13:30",1466353,9.96,73.53,3.164,0.795,3.764,99.06905,-3.072,-1.733,67.22,0,109.4,13.67,-2.33,35.5
"2009-12-02 01:14:00",1466354,10.2,73.97,3.456,0.71,4.013,99.06451,-3.084,-1.748,67.23,0,109.4,13.67,-2.34,36.0
"2009-12-02 01:14:30",1466355,9.69,73.09,2.955,0.645,3.748,99.06478,-3.083,-1.768,67.25,0,109.4,13.68,-2.34,35.1
"2009-12-02 01:15:00",1466356,9.94,74.71,2.738,0.841,3.685,99.06927,-3.071,-1.759,67.29,0,109.4,13.68,-2.33,36.7
"2009-12-02 01:15:30",1466357,9.74,72.17,3.693,0.855,3.735,99.06899,-3.072,-1.775,67.31,0,109.4,13.68,-2.33,34.2
"2009-12-02 01:16:00",1466358,10,72.62,3.276,0.714,3.738,99.0704,-3.069,-1.773,67.34,0,109.4,13.68,-2.33,34.6
"2009-12-02 01:16:30",1466359,9.83,72.82,4.069,0.477,3.577,99.06984,-3.07,-1.785,67.41,0,109.4,13.68,-2.33,34.8
"2009-12-02 01:17:00",1466360,9.8,72.82,3.558,0.64,3.636,99.0667,-3.078,-1.789,67.48,0,109.4,13.68,-2.34,34.8
"2009-12-02 01:17:30",1466361,9.84,72.37,3.704,0.7,3.713,99.05338,-3.112,-1.802,67.53,0,109.4,13.68,-2.37,34.4
"2009-12-02 01:18:00",1466362,9.42,70.43,2.913,0.731,3.653,99.04374,-3.137,-1.797,67.6,0,109.4,13.68,-2.40,32.4
"2009-12-02 01:18:30",1466363,9.58,69.69,3.923,0.297,3.563,99.03947,-3.147,-1.803,67.67,0,109.4,13.68,-2.41,31.7
"2009-12-02 01:19:00",1466364,9.66,69.56,3.294,0.745,3.492,99.03919,-3.148,-1.81,67.76,0,109.4,13.68,-2.41,31.6
"2009-12-02 01:19:30",1466365,10.75,69.26,3.176,0.678,3.446,99.03892,-3.149,-1.822,67.89,0,109.4,13.68,-2.41,31.3
"2009-12-02 01:20:00",1466366,10.83,70.17,2.412,0.721,3.591,99.03947,-3.147,-1.831,68.11,0,109.4,13.68,-2.41,32.2
"2009-12-02 01:20:30",1466367,10.98,70.12,3.528,0.603,3.532,99.03976,-3.147,-1.84,68.27,0,109.4,13.68,-2.41,32.1
"2009-12-02 01:21:00",1466368,10.91,69.57,3.428,0.612,3.597,99.03239,-3.165,-1.836,68.41,0,109.4,13.68,-2.42,31.6
"2009-12-02 01:21:30",1466369,10.89,68.46,3.434,0.604,3.701,99.01878,-3.2,-1.857,68.5,0,109.4,13.68,-2.46,30.5
"2009-12-02 01:22:00",1466370,10.71,70.14,3.108,0.645,3.959,99.00971,-3.223,-1.881,68.6,0,109.4,13.68,-2.48,32.1
"2009-12-02 01:22:30",1466371,10.51,69.53,3.319,0.501,3.649,99.00546,-3.234,-1.872,68.67,0,109.4,13.68,-2.49,31.5
"2009-12-02 01:23:00",1466372,10.43,70.27,3.569,0.478,3.804,99.00546,-3.234,-1.888,68.77,0,109.4,13.68,-2.49,32.3
"2009-12-02 01:23:30",1466373,10.08,69.3,2.732,0.73,3.701,99.00658,-3.231,-1.916,68.83,0,109.4,13.68,-2.49,31.3
"2009-12-02 01:24:00",1466374,10.18,69.04,2.726,0.591,3.708,98.99865,-3.251,-1.932,68.9,0,109.4,13.68,-2.51,31.0
"2009-12-02 01:24:30",1466375,10.32,69.98,2.817,0.507,3.463,98.9822,-3.293,-1.927,69,0,109.4,13.68,-2.55,32.0
"2009-12-02 01:25:00",1466376,10.35,68.33,3.269,0.612,3.451,98.97566,-3.31,-1.927,69.09,0,109.4,13.68,-2.57,30.3
"2009-12-02 01:25:30",1466377,10.02,68.41,3.164,0.649,3.483,98.97453,-3.313,-1.956,69.16,0,109.4,13.68,-2.57,30.4
"2009-12-02 01:26:00",1466378,10.24,69.45,3.503,0.611,3.681,98.97651,-3.308,-1.98,69.25,0,109.4,13.68,-2.57,31.4
"2009-12-02 01:26:30",1466379,10.21,67.89,2.684,0.615,3.577,98.97338,-3.316,-1.987,69.32,0,109.3,13.68,-2.58,29.9
"2009-12-02 01:27:00",1466380,10.1,67.55,3.095,0.601,3.506,98.9541,-3.365,-1.986,69.43,0,109.4,13.68,-2.62,29.6
"2009-12-02 01:27:30",1466381,9.9,65.49,3.742,0.571,3.393,98.94616,-3.385,-2.03,69.53,0,109.4,13.68,-2.64,27.5
"2009-12-02 01:28:00",1466382,9.77,65.2,4.652,0.769,3.567,98.94418,-3.39,-2.037,69.65,0,109.4,13.68,-2.65,27.2
"2009-12-02 01:28:30",1466383,9.17,57.92,3.949,0.81,3.414,98.94445,-3.389,-2.052,69.86,0,109.4,13.68,-2.65,19.9
"2009-12-02 01:29:00",1466384,9.14,59.95,5.533,0.805,3.419,98.93426,-3.415,-2.053,70.06,0,109.4,13.68,-2.68,22.0
"2009-12-02 01:29:30",1466385,9.61,65.88,3.62,0.864,3.36,98.91299,-3.47,-2.089,70.14,0,109.4,13.68,-2.73,27.9
"2009-12-02 01:30:00",1466386,9.13,65.2,5.114,0.783,3.581,98.91044,-3.476,-2.11,70.25,0,109.3,13.68,-2.74,27.2
"2009-12-02 01:30:30",1466387,8.42,61.14,4.008,0.763,3.29,98.91073,-3.475,-2.118,70.33,0,109.3,13.68,-2.74,23.1
"2009-12-02 01:31:00",1466388,7.234,58.83,3.848,0.639,3.264,98.91072,-3.475,-2.133,70.43,0,109.4,13.68,-2.74,20.8
"2009-12-02 01:31:30",1466389,7.004,57.6,4.302,0.79,3.008,98.89852,-3.506,-2.146,70.51,0,109.3,13.68,-2.77,19.6
"2009-12-02 01:32:00",1466390,9.03,61.47,4.519,0.995,2.899,98.88832,-3.532,-2.163,70.6,0,109.3,13.68,-2.79,23.5
"2009-12-02 01:32:30",1466391,9.45,71,3.692,0.543,2.888,98.87755,-3.56,-2.195,70.71,0,109.3,13.68,-2.82,33.0
"2009-12-02 01:33:00",1466392,8.74,63.6,7.299,0.734,2.844,98.87698,-3.561,-2.194,70.75,0,109.3,13.69,-2.82,25.6
"2009-12-02 01:33:30",1466393,9.17,67.7,9,1.176,2.873,98.86904,-3.582,-2.218,70.8,0,109.3,13.69,-2.84,29.7
"2009-12-02 01:34:00",1466394,10,72.92,5.641,0.683,3.044,98.85487,-3.618,-2.236,70.81,0,109.3,13.69,-2.88,34.9
"2009-12-02 01:34:30",1466395,10.48,75.96,3.053,1.062,2.969,98.84467,-3.644,-2.25,70.84,0,109.3,13.69,-2.90,38.0
"2009-12-02 01:35:00",1466396,11.63,77.74,3.395,0.634,3.106,98.84353,-3.647,-2.268,70.78,0,109.3,13.69,-2.91,39.7
"2009-12-02 01:35:30",1466397,11.78,79,3.282,0.673,3.35,98.84353,-3.647,-2.299,70.64,0,109.3,13.69,-2.91,41.0
"2009-12-02 01:36:00",1466398,11.62,78.1,3.308,0.693,3.506,98.84325,-3.647,-2.308,70.5,0,109.3,13.69,-2.91,40.1
"2009-12-02 01:36:30",1466399,11.71,77.97,2.509,0.623,3.504,98.84042,-3.654,-2.323,70.46,0,109.4,13.69,-2.92,40.0
"2009-12-02 01:37:00",1466400,11.52,76.43,3.219,0.628,3.383,98.82681,-3.689,-2.315,70.42,0,109.3,13.69,-2.95,38.4
"2009-12-02 01:37:30",1466401,11.34,76.5,3.18,0.637,3.439,98.81887,-3.709,-2.348,70.37,0,109.3,13.69,-2.97,38.5
"2009-12-02 01:38:00",1466402,11.38,75.34,3.373,0.625,3.628,98.81406,-3.722,-2.37,70.39,0,109.3,13.69,-2.98,37.3
"2009-12-02 01:38:30",1466403,11.49,75.78,3.116,0.503,3.531,98.80981,-3.732,-2.374,70.37,0,109.4,13.69,-2.99,37.8
"2009-12-02 01:39:00",1466404,11.34,76.51,3.363,0.639,3.52,98.80952,-3.733,-2.369,70.37,0,109.3,13.69,-2.99,38.5
"2009-12-02 01:39:30",1466405,11.5,76.03,3.167,0.642,3.51,98.80952,-3.733,-2.397,70.4,0,109.3,13.69,-2.99,38.0
"2009-12-02 01:40:00",1466406,11.9,74.17,3.729,0.609,3.6,98.80952,-3.733,-2.391,70.42,0,109.3,13.69,-2.99,36.2
"2009-12-02 01:40:30",1466407,11.74,71.62,3.382,0.514,3.398,98.80952,-3.733,-2.389,70.51,0,109.4,13.69,-2.99,33.6
"2009-12-02 01:41:00",1466408,11.49,71.06,3.389,0.631,3.487,98.80952,-3.733,-2.397,70.61,0,109.3,13.69,-2.99,33.1
"2009-12-02 01:41:30",1466409,11.64,73.49,3.541,0.645,3.559,98.80952,-3.733,-2.417,70.67,0,109.3,13.69,-2.99,35.5
"2009-12-02 01:42:00",1466410,11.58,72.95,3.063,0.63,3.669,98.80952,-3.733,-2.415,70.71,0,109.3,13.69,-2.99,34.9
"2009-12-02 01:42:30",1466411,11.39,73.63,2.528,0.6,3.747,98.80952,-3.733,-2.427,70.72,0,109.3,13.69,-2.99,35.6
"2009-12-02 01:43:00",1466412,11.23,71.5,3.098,0.609,3.443,98.80952,-3.733,-2.415,70.77,0,109.3,13.69,-2.99,33.5
"2009-12-02 01:43:30",1466413,11.09,70.13,3.526,0.655,3.351,98.80952,-3.733,-2.433,70.85,0,109.3,13.69,-2.99,32.1
"2009-12-02 01:44:00",1466414,11,70.07,3.771,0.521,3.577,98.80442,-3.746,-2.443,71,0,109.3,13.69,-3.01,32.1
"2009-12-02 01:44:30",1466415,10.82,72.9,2.171,0.774,3.247,98.7894,-3.784,-2.449,71.09,0,109.3,13.68,-3.05,34.9
"2009-12-02 01:45:00",1466416,10.92,70.83,3.798,0.665,3.28,98.78089,-3.806,-2.438,71.2,0,109.3,13.68,-3.07,32.8
"2009-12-02 01:45:30",1466417,10.9,69.73,3.564,0.645,3.233,98.77551,-3.82,-2.459,71.27,0,109.3,13.68,-3.08,31.7
"2009-12-02 01:46:00",1466418,10.91,70.68,3.48,0.483,3.377,98.77551,-3.82,-2.467,71.38,0,109.3,13.68,-3.08,32.7